Zurück zum Katalog

STARLINK-11359

AktivKommunikationVLEO
NORAD 61884·PAYLOAD·🇺🇸 United States

Gestartet Nov 9, 2024 von Vandenberg Space Force Base

Loading…

Nächste Überflüge (nächste 24 Stunden)

TLE

AktuellSource: CelesTrak SupGP

Epoche: Sep 14, 2026, 14:03 UTC

1 61884C 24204L   26257.58590278  .00047623  00000+0  39250-3 0  2575
2 61884  53.1563 144.9581 0001075  91.8907 298.1553 15.69672741    13

Verfolge STARLINK-11359 in Echtzeit mit AllMySat

Download on the App Store